MIDAS 5 DEB, 273

Orbit data source: Space-Track

MIDAS 5 DEB, 273 is space debris in LEO originally from a launch on Mon, 09 Apr 1962 UTC launched from the Air Force Western Test Range (AFWTR). Debris objects in space refer to the collection of defunct objects orbiting the Earth. Examples of debris include non-operational satellites, rocket bodies, and fragments generated from explosions, collisions, or faulty payload assembly.

Loading next visibility...
Identifier
273, 1962-010C
Orbit
LEO
Country
Flag of USUS
Related business
Manufacturer
Unknown
Mission
Spacecraft
Bus & Motor
Unknown
Mass
~10 kg wet, ~10 kg dry
Launch date (UTC)
1962-04-09 (64 years ago)
Launch vehicle
Unknown
Launch site
Air Force Western Test Range (AFWTR)
Object type
Payload
Rocket body
Debris
Shape & HBR
Unknown shape, 0.4 m
Radar Cross Section
Medium (>0.1 m² and <1 m²)

Expand to show TLE details & history
Last TLE update: 23 hours ago

TLE from 23 hours ago
0 MIDAS 5 DEB
1 00273U 62010C   25340.67472917 -.00000022  00000-0 -54220-2 0  9999
2 00273  86.6605 325.2549 0325280  96.2621 267.5434  9.43823677193127
Epoch: 2025-12-06T16:11Z
TLE epoch observation values (Epoch: 2025-12-06T16:11:36.600Z)
Latitude
0.00005°
Longitude
6.65333°
Altitude
3,105.517 km
Speed
6.476 km/s
True Right ascension
21h 41m 01s
True Declination
0° 00' 00"
Sunlit
Object was in daylight at epoch
Visualization orbit readout
Latitude
Unknown
Longitude
Unknown
Altitude
Unknown
Speed
Unknown
Apparent Right ascension
Unknown
Apparent Declination
Unknown
Sunlit
N/A
Visualization observer readout
Local Sidereal Time
13:17:40
Azimuth
Unknown
Elevation
Unknown
Doppler factor
Unknown
Orbital elements
Apogee altitude
3,385.33 km
Perigee altitude
2,770.168 km
Semi-major axis
9,455.886 km
Eccentricity
0.03253
Inclination
86.6605°
RAAN
325.2549°
Arg. of periapsis
96.2621°
True anomaly
263.82847°
Mean anomaly
267.5434°
Eccentric anomaly
265.68497°
Mean motion
2.36042 °/min
Orbital period
152.52 mins
BSTAR
-0.005422
Loading maneuver chart data...
Computing Atmospheric mass density...
Loading historical data...
Loading historical data...
Loading historical data...
Loading historical data...
Loading historical data...
Loading historical data...
Loading historical data...

Documentation

Showing up to 5 results
|